Location: Sankt Anna
(58.3452°N, 16.7040°E)
Time: 21:21:01
(UTC+02:00)

DX 1 - Pass Details

Date: 02 June 2019
Orbit: 620 x 630 km, 98.4° (Epoch: 16 June)

Event Time Altitude Azimuth Distance (km) Brightness Sun altitude
Rises 02:18:11 0° 123° (ESE) 2,916 ? -7.5°
Reaches altitude 10° 02:20:38 10° 111° (ESE) 2,014 ? -7.4°
Maximum altitude 02:24:16 26° 55° (NE) 1,249 ? -7.2°
Drops below altitude 10° 02:27:55 10° 359° (N) 2,027 ? -7.1°
Sets 02:30:23 0° 347° (NNW) 2,940 ? -6.9°
